Weather History for Cecil Field, FL

Change the Weather History Date:

Wednesday, May 15, 2013

  Actual Average (KJAX) Record (KJAX)
Temperature  
Mean Temperature 66 °F 74 °F  
Max Temperature 84 °F 85 °F 97 °F (1967)
Min Temperature 48 °F 62 °F 52 °F (2002)
Degree Days  
Heating Degree Days 0 0  
Month to date heating degree days 3  
Since 1 July heating degree days 1347  
Cooling Degree Days 1 9  
Month to date cooling degree days 112  
Year to date cooling degree days 308  
Growing Degree Days 16 (Base 50)    
Moisture  
Dew Point 53 °F    
Average Humidity 76    
Maximum Humidity 100    
Minimum Humidity 35    
Precipitation  
Precipitation 0.00 in 0.07 in 2.18 in (1969)
Month to date precipitation 1.00  
Year to date precipitation 14.08  
Snow  
Snow 0.00 in 0.00 in 0.00 in (2002)
Month to date snowfall 0.0  
Since 1 July snowfall T  
Snow Depth -    
Sea Level Pressure  
Sea Level Pressure 30.17 in    
Wind  
Wind Speed 1 mph (SE)    
Max Wind Speed 8 mph    
Max Gust Speed -    
Visibility 10 miles    
Events      
T = Trace of Precipitation, MM = Missing Value Source: NWS Daily Summary

Daily Weather History Graph

Daily Weather History Graph

Search for Another Location

Airport:

Trip Planner

Search our weather history database for the weather conditions in past years. The results will help you decide how hot, cold, wet, or windy it might be!

Date:

Astronomy

May. 15, 2013 Rise Set
Actual Time 6:33 AM EDT 8:14 PM EDT
Civil Twilight 6:07 AM EDT 8:40 PM EDT
Nautical Twilight 5:35 AM EDT 9:12 PM EDT
Astronomical Twilight 5:02 AM EDT 9:45 PM EDT
Moon 11:04 AM EDT (5/15) 12:02 AM EDT (5/15)
Length of Visible Light 14h 33m
Length of Day
13h 41m
Waxing Crescent, 26% of the Moon is Illuminated
May 15
Waxing Crescent
May 18
First Quarter
May 25
Full
May 31
Last Quarter
Jun 8
New

Hourly Weather History & Observations

Time (EDT) Temp. Heat Index Dew Point Humidity Pressure Visibility Wind Dir Wind Speed Gust Speed Precip Events Conditions
12:15 AM 53.6 °F - 50.0 °F 88% 30.23 in 10.0 mi Calm Calm - N/A   Clear
12:35 AM 51.8 °F - 50.0 °F 94% 30.23 in 10.0 mi Calm Calm - N/A   Clear
12:55 AM 51.8 °F - 50.0 °F 94% 30.23 in 10.0 mi Calm Calm - N/A   Clear
1:15 AM 50.0 °F - 50.0 °F 100% 30.22 in 10.0 mi Calm Calm - N/A   Clear
1:35 AM 50.0 °F - 50.0 °F 100% 30.22 in 10.0 mi Calm Calm - N/A   Clear
1:55 AM 50.0 °F - 50.0 °F 100% 30.21 in 10.0 mi Calm Calm - N/A   Clear
2:15 AM 50.0 °F - 50.0 °F 100% 30.21 in 10.0 mi Calm Calm - N/A   Clear
2:35 AM 50.0 °F - 50.0 °F 100% 30.20 in 10.0 mi Calm Calm - N/A   Clear
2:55 AM 50.0 °F - 50.0 °F 100% 30.19 in 10.0 mi Calm Calm - N/A   Clear
3:15 AM 50.0 °F - 50.0 °F 100% 30.19 in 10.0 mi Calm Calm - N/A   Clear
3:35 AM 50.0 °F - 50.0 °F 100% 30.19 in 9.0 mi Calm Calm - N/A   Clear
3:55 AM 50.0 °F - 50.0 °F 100% 30.18 in 9.0 mi Calm Calm - N/A   Clear
4:15 AM 50.0 °F - 50.0 °F 100% 30.18 in 10.0 mi Calm Calm - N/A   Clear
4:35 AM 48.2 °F - 48.2 °F 100% 30.19 in 10.0 mi Calm Calm - N/A   Clear
4:55 AM 48.2 °F - 48.2 °F 100% 30.19 in 10.0 mi Calm Calm - N/A   Clear
5:15 AM 48.2 °F - 48.2 °F 100% 30.19 in 8.0 mi Calm Calm - N/A   Clear
5:35 AM 48.2 °F - 48.2 °F 100% 30.20 in 8.0 mi Calm Calm - N/A   Clear
5:55 AM 48.2 °F - 48.2 °F 100% 30.20 in 9.0 mi Calm Calm - N/A   Clear
6:15 AM 48.2 °F - 48.2 °F 100% 30.21 in 9.0 mi Calm Calm - N/A   Clear
6:35 AM 48.2 °F - 48.2 °F 100% 30.21 in 7.0 mi Calm Calm - N/A   Clear
7:50 AM 53.6 °F - 53.6 °F 100% 30.22 in 10.0 mi Calm Calm - N/A   Clear
8:50 AM 68.0 °F - 59.0 °F 73% 30.24 in 10.0 mi Calm Calm - N/A   Clear
9:50 AM 73.4 °F - 59.0 °F 61% 30.25 in 10.0 mi West 8.1 mph - N/A   Clear
10:50 AM 77.0 °F - 53.6 °F 44% 30.24 in 10.0 mi Variable 5.8 mph - N/A   Clear
11:50 AM 78.8 °F - 51.8 °F 39% 30.24 in 10.0 mi Variable 5.8 mph - N/A   Clear
12:50 PM 80.6 °F - 51.8 °F 37% 30.22 in 10.0 mi Calm Calm - N/A   Clear
1:50 PM 82.4 °F 81.4 °F 53.6 °F 37% 30.19 in 10.0 mi Variable 5.8 mph - N/A   Clear
2:50 PM 82.4 °F 81.4 °F 53.6 °F 37% 30.16 in 10.0 mi Variable 6.9 mph - N/A   Clear
3:50 PM 84.2 °F 82.8 °F 53.6 °F 35% 30.13 in 10.0 mi Variable 4.6 mph - N/A   Clear
4:50 PM 82.4 °F 81.7 °F 55.4 °F 39% 30.12 in 10.0 mi East 8.1 mph - N/A   Clear
5:50 PM 82.4 °F 81.7 °F 55.4 °F 39% 30.10 in 10.0 mi ESE 8.1 mph - N/A   Clear
6:50 PM 82.4 °F 81.7 °F 55.4 °F 39% 30.09 in 10.0 mi SE 5.8 mph - N/A   Clear
7:50 PM 77.0 °F - 55.4 °F 47% 30.09 in 10.0 mi ESE 5.8 mph - N/A   Clear
8:15 PM 75.2 °F - 55.4 °F 50% 30.10 in 10.0 mi Calm Calm - N/A   Clear
8:35 PM 73.4 °F - 55.4 °F 53% 30.10 in 10.0 mi SE 3.5 mph - N/A   Clear
8:55 PM 69.8 °F - 55.4 °F 60% 30.10 in 10.0 mi Calm Calm - N/A   Clear
9:15 PM 68.0 °F - 57.2 °F 68% 30.11 in 10.0 mi Calm Calm - N/A   Clear
9:35 PM 66.2 °F - 57.2 °F 73% 30.11 in 10.0 mi SE 3.5 mph - N/A   Clear
9:55 PM 66.2 °F - 57.2 °F 73% 30.12 in 10.0 mi SE 3.5 mph - N/A   Clear
10:15 PM 68.0 °F - 57.2 °F 68% 30.12 in 10.0 mi SE 3.5 mph - N/A   Clear
10:35 PM 66.2 °F - 57.2 °F 73% 30.12 in 10.0 mi Calm Calm - N/A   Clear
10:55 PM 64.4 °F - 57.2 °F 77% 30.12 in 10.0 mi Calm Calm - N/A   Clear
11:15 PM 64.4 °F - 57.2 °F 77% 30.12 in 10.0 mi SSE 3.5 mph - N/A   Clear
11:35 PM 66.2 °F - 57.2 °F 73% 30.12 in 10.0 mi SSE 3.5 mph - N/A   Clear
11:55 PM 66.2 °F - 57.2 °F 73% 30.11 in 10.0 mi SSE 3.5 mph - N/A   Clear